Cloud_Cover
0 0 4 50 100 100 7 1 1 5 5 19 41 66 93 100 98 96 7 8 100 60 15 100 100 100 100 96 75 9 5 5 5 5 5 4 0 0 0 5 4 5 0 0 0 0 0 0 2
0 0 0 5 19 91 5 5 5 32 36 12 20 94 100 100 100 92 99 56 5 62 100 100 100 100 100 100 25 8 0 1 5 12 5 5 3 0 0 0 2 0 4 1 0 0 0 0 0
0 0 0 0 0 1 4 16 61 74 0 20 47 100 100 100 100 100 100 42 5 5 62 100 100 100 100 62 94 23 0 0 0 5 5 4 0 0 0 0 0 5 5 0 14 0 0 0 0
0 0 0 0 1 0 50 48 0 60 44 71 100 100 100 100 100 100 100 88 34 14 38 100 100 100 100 70 78 5 2 1 0 0 3 3 0 0 0 0 0 0 2 9 2 0 0 0 0
0 5 83 90 74 12 34 5 5 98 100 94 24 82 100 99 63 61 8 6 11 100 100 100 100 100 100 100 31 7 5 4 1 0 0 0 1 0 0 0 0 0 0 2 5 5 4 1 0
0 8 61 23 4 3 20 78 5 61 85 98 66 75 96 100 100 100 64 81 100 100 100 100 100 100 100 100 88 36 9 4 3 5 0 0 0 0 0 0 0 0 0 0 0 1 5 4 0
0 66 97 14 4 4 1 8 92 100 100 100 100 100 100 100 100 92 99 100 100 100 100 100 100 100 100 84 18 7 5 5 1 0 4 2 0 0 0 0 0 0 0 0 0 0 0 0 0
0 75 100 12 5 3 2 86 100 71 33 98 16 4 57 5 61 100 100 100 100 100 100 100 47 9 100 5 7 2 5 5 4 0 0 0 0 0 0 0 0 0 0 0 0 0 0 0 0
2 49 70 7 1 1 86 100 100 100 100 100 87 85 100 100 83 34 52 87 100 100 100 47 5 5 39 16 2 4 4 0 0 0 0 0 0 0 0 0 0 0 0 0 0 0 0 0 0
2 100 92 23 1 33 100 100 100 81 86 6 5 5 8 51 38 59 58 64 98 68 28 0 0 0 0 1 5 5 0 0 0 0 0 0 0 0 0 1 0 0 0 0 0 0 0 0 0
5 98 99 100 58 97 94 100 100 86 83 84 97 95 11 4 5 5 2 0 0 0 0 0 0 0 0 0 0 0 0 0 0 0 0 0 2 5 5 5 0 1 0 0 0 0 0 0 0
98 78 100 100 100 94 100 100 5 53 100 93 69 39 3 0 0 0 0 0 0 0 47 1 0 0 0 0 0 0 0 0 0 0 5 10 99 48 98 5 5 5 0 0 0 0 0 0 0
67 100 100 100 100 100 88 5 0 0 0 0 0 0 0 0 0 0 0 0 11 2 74 84 8 2 0 0 0 0 0 1 30 51 100 99 45 28 6 95 27 5 0 0 0 0 0 0 0
97 100 100 97 49 2 4 0 0 0 0 0 0 0 0 0 0 0 0 2 44 59 100 44 5 4 5 0 2 4 4 33 34 27 43 51 59 49 43 7 19 5 0 0 0 0 0 0 0
100 100 100 86 0 0 1 0 0 0 0 0 0 0 0 0 0 5 99 100 94 100 20 54 72 10 5 5 5 5 99 91 7 7 13 11 59 87 12 5 5 5 5 5 0 0 0 0 0
100 100 97 5 5 0 0 0 0 0 1 1 0 0 0 0 0 49 73 20 16 61 100 69 99 33 9 5 11 48 17 7 11 44 14 82 89 80 70 60 58 5 5 5 5 3 5 0 0
100 100 2 3 5 0 1 1 5 37 14 22 10 5 5 1 5 5 5 5 57 98 100 94 14 70 70 5 39 82 64 64 20 22 44 71 100 100 100 29 12 76 13 5 5 5 0 0 0
98 5 3 7 5 5 5 4 5 20 73 100 44 5 5 45 82 83 98 67 32 100 100 91 64 51 44 93 80 73 76 96 71 70 100 100 100 100 100 100 100 100 100 82 6 5 0 0 0
53 4 4 0 0 1 4 45 100 100 92 98 59 46 49 100 100 98 97 100 60 84 100 100 91 89 95 100 100 100 95 100 100 100 100 81 89 76 24 85 100 100 100 98 100 43 1 0 0
0 0 0 0 0 0 4 97 100 95 85 68 24 37 93 100 100 100 100 98 100 100 87 95 93 88 96 96 96 95 99 43 64 82 42 62 98 86 100 100 94 100 100 100 100 27 4 0 0
0 0 0 0 0 6 99 90 96 100 95 24 49 100 83 34 29 45 86 93 75 56 8 1 1 11 33 7 30 7 5 0 5 78 64 80 64 5 10 52 100 90 67 10 7 20 6 16 4
0 0 0 0 0 0 4 92 92 97 71 88 100 100 98 96 99 100 80 13 35 4 0 0 1 5 8 5 7 8 5 45 100 100 100 100 99 98 95 100 100 100 100 100 98 57 5 11 5
0 0 0 0 2 1 5 43 32 16 20 100 96 100 78 11 94 93 94 7 5 5 3 5 5 2 4 5 5 4 63 96 87 85 98 100 100 100 100 100 100 99 100 100 100 100 100 99 21
0 0 0 0 0 45 99 15 38 41 66 100 86 56 5 5 5 4 5 5 5 1 3 3 43 56 81 58 44 76 91 88 83 93 88 99 100 100 98 100 94 79 85 61 100 100 50 46 100
0 0 4 4 36 94 68 98 83 42 34 84 7 3 3 5 5 5 0 0 0 4 51 100 99 94 82 100 100 100 98 99 97 100 100 100 100 100 100 100 100 95 99 100 91 77 100 95 12
0 0 4 5 76 99 99 96 80 26 90 12 5 63 11 2 1 0 0 2 53 98 100 100 90 100 100 100 99 100 100 100 100 100 100 100 99 100 99 86 86 100 90 89 98 96 66 100 87
0 0 2 5 5 28 99 82 23 69 50 5 19 2 0 0 3 53 100 100 100 100 100 100 100 82 90 100 100 100 100 100 98 97 99 89 80 95 92 78 81 81 69 75 71 76 68 99 98
0 1 3 5 26 90 99 91 56 24 5 3 0 0 11 100 100 97 92 95 100 96 97 75 87 92 100 100 100 97 100 84 63 65 89 100 100 100 100 94 31 5 5 5 12 37 58 85 86
0 1 6 56 70 21 58 21 5 5 5 0 0 5 99 100 100 100 85 72 64 84 99 100 100 100 100 100 97 80 68 88 74 77 100 100 100 100 100 85 100 94 89 58 47 99 100 100 95
1 8 78 5 64 56 5 45 7 5 2 5 5 16 100 100 100 15 48 67 100 100 100 100 100 89 82 89 81 54 100 100 100 100 94 100 96 100 100 100 100 100 100 100 100 100 100 100 100